Weather History for Cut Bank, MT

Change the Weather History Date:

Sunday, February 10, 2013

  Actual Average Record
Temperature  
Mean Temperature 19 °F 23 °F  
Max Temperature 28 °F 35 °F 59 °F (1926)
Min Temperature 9 °F 12 °F -33 °F (1939)
Degree Days  
Heating Degree Days 46 42  
Month to date heating degree days 285 420  
Since 1 July heating degree days 5028 5338  
Cooling Degree Days 0 0  
Month to date cooling degree days 0 0  
Year to date cooling degree days 0 0  
Moisture  
Dew Point 15 °F    
Average Humidity 78    
Maximum Humidity 92    
Minimum Humidity 63    
Precipitation  
Precipitation T in 0.00 in 0.24 in (1922)
Month to date precipitation T 0.06  
Year to date precipitation 0.42 0.26  
Snow  
Snow 0.00 in - - ()
Snow Depth 1.00 in    
Sea Level Pressure  
Sea Level Pressure 30.20 in    
Wind  
Wind Speed 9 mph (NW)    
Max Wind Speed 21 mph    
Max Gust Speed 24 mph    
Visibility 10 miles    
Events Snow    
T = Trace of Precipitation, MM = Missing Value Source: NWS Daily Summary

Daily Weather History Graph

Daily Weather History Graph

Search for Another Location

Airport:

Trip Planner

Search our weather history database for the weather conditions in past years. The results will help you decide how hot, cold, wet, or windy it might be!

Date:

Astronomy

Feb. 10, 2013 Rise Set
Actual Time 7:44 AM MST 5:43 PM MST
Civil Twilight 7:12 AM MST 6:16 PM MST
Nautical Twilight 6:35 AM MST 6:53 PM MST
Astronomical Twilight 5:58 AM MST 7:29 PM MST
Moon 7:30 AM MST (2/10) 6:47 PM MST (2/10)
Length of Visible Light 11h 04m
Length of Day
9h 58m
New Moon, 0% of the Moon is Illuminated
Feb 10
New Moon
Feb 17
First Quarter
Feb 25
Full
Mar 4
Last Quarter
Mar 11
New

Hourly Weather History & Observations

Time (MST) Temp. Windchill Dew Point Humidity Pressure Visibility Wind Dir Wind Speed Gust Speed Precip Events Conditions
12:10 AM 26.6 °F 15.2 °F 24.8 °F 93% 30.03 in 3.0 mi NNW 13.8 mph - 0.00 in Snow Light Snow
12:25 AM 26.6 °F 15.2 °F 24.8 °F 93% 30.03 in 5.0 mi NNW 13.8 mph - 0.00 in Snow Light Snow
12:56 AM 25.0 °F 12.2 °F 21.9 °F 88% 30.14 in 10.0 mi NNW 16.1 mph - 0.00 in   Overcast
1:56 AM 21.9 °F 8.2 °F 18.0 °F 85% 30.15 in 10.0 mi NW 16.1 mph - N/A   Partly Cloudy
2:56 AM 21.0 °F 6.2 °F 17.1 °F 85% 30.16 in 10.0 mi NNW 18.4 mph - N/A   Clear
3:56 AM 19.9 °F 4.8 °F 15.1 °F 81% 30.18 in 10.0 mi NNW 18.4 mph - N/A   Partly Cloudy
4:56 AM 19.9 °F - 15.1 °F 81% 30.19 in 10.0 mi North - - N/A   Partly Cloudy
5:56 AM 17.1 °F 2.5 °F 12.9 °F 84% 30.22 in 10.0 mi NNW 15.0 mph - N/A   Clear
6:56 AM 15.1 °F 1.8 °F 12.0 °F 88% 30.24 in 10.0 mi NNW 11.5 mph - N/A   Clear
7:56 AM 12.9 °F 2.6 °F 10.9 °F 92% 30.27 in 10.0 mi NNW 6.9 mph - N/A   Clear
8:17 AM 17.6 °F 9.3 °F 14.0 °F 86% 30.12 in 10.0 mi North 5.8 mph - N/A   Mostly Cloudy
8:56 AM 19.9 °F - 12.9 °F 74% 30.28 in 10.0 mi Calm Calm - N/A   Overcast
9:56 AM 21.0 °F 16.2 °F 15.1 °F 78% 30.27 in 10.0 mi WNW 3.5 mph - N/A   Scattered Clouds
10:56 AM 24.1 °F 13.7 °F 17.1 °F 75% 30.25 in 10.0 mi NW 10.4 mph - N/A   Clear
11:56 AM 25.0 °F 14.2 °F 18.0 °F 75% 30.25 in 10.0 mi NNW 11.5 mph - N/A   Clear
12:56 PM 26.1 °F 13.1 °F 17.1 °F 69% 30.23 in 10.0 mi NNW 17.3 mph - N/A   Clear
1:56 PM 28.0 °F 19.3 °F 17.1 °F 63% 30.24 in 10.0 mi NNW 9.2 mph - N/A   Clear
2:56 PM 28.0 °F 19.3 °F 18.0 °F 66% 30.22 in 10.0 mi NW 9.2 mph - N/A   Clear
3:56 PM 27.0 °F 18.7 °F 17.1 °F 66% 30.22 in 10.0 mi NW 8.1 mph - N/A   Clear
4:56 PM 24.1 °F 15.2 °F 15.1 °F 69% 30.22 in 10.0 mi NW 8.1 mph - N/A   Clear
5:56 PM 15.1 °F 6.4 °F 10.0 °F 80% 30.24 in 10.0 mi West 5.8 mph - N/A   Clear
6:56 PM 18.0 °F 12.7 °F 12.0 °F 78% 30.23 in 10.0 mi SW 3.5 mph - N/A   Clear
7:56 PM 16.0 °F - 10.0 °F 77% 30.23 in 10.0 mi Calm Calm - N/A   Clear
8:56 PM 14.0 °F - 8.1 °F 77% 30.21 in 10.0 mi Calm Calm - N/A   Clear
9:56 PM 10.9 °F 1.4 °F 8.1 °F 88% 30.19 in 10.0 mi SSE 5.8 mph - N/A   Clear
10:56 PM 12.9 °F 6.9 °F 8.1 °F 81% 30.15 in 10.0 mi South 3.5 mph - N/A   Clear
11:56 PM 12.0 °F - 7.0 °F 80% 30.12 in 10.0 mi Calm Calm - N/A   Clear